Regional Weather Roundup
Issued by NWS Jackson, KY

Home | Current Version | Previous Version | Graphics & Text | Print | Product List | Glossary On
Versions: 1 2 3 4 5 6 7 8 9 10 11 12 13 14 15 16 17 18 19 20 21 22 23 24 25 26 27
000
ASUS43 KJKL 270010
RWRJKL

EAST KENTUCKY HOURLY WEATHER ROUNDUP
NATIONAL WEATHER SERVICE JACKSON KY
800 PM EDT FRI AUG 26 2016

NOTE: "FAIR" INDICATES FEW OR NO CLOUDS BELOW 12,000 FEET WITH
NO SIGNIFICANT WEATHER AND/OR OBSTRUCTIONS TO VISIBILITY.

* THESE REPORTS ARE NOT UNDER NWS QUALITY CONTROL AND MAY NOT
  REPORT WEATHER SUCH AS PRECIPITATION AND FOG.

KYZ079-080-083-085-087-088-110-112-115-119-120-270100
...EASTERN KENTUCKY...

CITY           SKY/WX    TMP DP  RH WIND       PRES   REMARKS
JACKSON        CLEAR     83  69  62 CALM      30.13R
6HR MIN TEMP:  83; 6HR MAX TEMP:  90;

LONDON         CLEAR     83  68  60 NE5       30.11R
6HR MIN TEMP:  83; 6HR MAX TEMP:  91;

SOMERSET*      CLEAR     82  68  61 E3        30.10R
MONTICELLO*    CLEAR    N/A N/A N/A NE15      30.10R
WILLIAMSBURG*  CLEAR     82  73  74 NE5       30.10R
MIDDLESBORO*   CLEAR     82  75  79 CALM      30.10R
6HR MIN TEMP:  82; 6HR MAX TEMP:  93;

HARLAN APT*    MOCLDY    81  68  65 CALM      30.13R
PIKE CO APT*     N/A     82  72  70 CALM      30.13S
BIG SANDY APT* CLEAR     83  73  71 CALM      30.12R HX  90
6HR MIN TEMP:  83; 6HR MAX TEMP:  91;

MOREHEAD APT*  CLEAR     84  73  70 CALM      30.12S HX  91
ASHLAND*       CLOUDY    84  75  74 CALM      30.07R HX  92
$$

KYZ035-036-041-042-044-050-067-078-099-270100
...CENTRAL KENTUCKY...

CITY           SKY/WX    TMP DP  RH WIND       PRES   REMARKS
MT STERLING*   CLEAR     84  70  61 S3        30.12R
FLEMING/MASON* CLEAR     85  72  65 SE3       30.11R HX  90
DANVILLE*      CLEAR     82  70  65 CALM      30.11R
LEXINGTON      PTCLDY    86  70  58 S5        30.11R HX  90
6HR MIN TEMP:  85; 6HR MAX TEMP:  94;

FRANKFORT      CLEAR     85  72  65 CALM      30.08R HX  91
6HR MIN TEMP:  85; 6HR MAX TEMP:  93;

LOUISVILLE     MOCLDY    89  66  46 SE6       30.06R HX  91
6HR MIN TEMP:  89; 6HR MAX TEMP:  93;

LEBANON*         N/A     84  72  65 CALM      30.09R
GLASGOW*       CLOUDY    84  73  67 NE3       30.07R HX  90
BOWLING GREEN  CLEAR     86  74  67 NE5       30.04F HX  94
6HR MIN TEMP:  86; 6HR MAX TEMP:  94;

$$

KYZ091>093-OHZ055-061-077-WVZ005-015-034-035-042-270100
...SOUTHERN OHIO/WEST VIRGINIA...

CITY           SKY/WX    TMP DP  RH WIND       PRES   REMARKS
COVINGTON      MOCLDY    84  74  71 N10       30.10R THUNDER HX  91
COLUMBUS       PTCLDY    81  68  64 NE6       30.10R
DAYTON         MOCLDY    81  72  74 NE5       30.11R
WILMINGTON     CLEAR     79  74  84 E3        30.10R
HUNTINGTON     PTCLDY    87  72  60 CALM      30.09R HX  93
CHARLESTON     PTCLDY    84  74  71 CALM      30.10R HX  91
PINEVILLE*     CLEAR     76  70  80 MISG      30.20R
BECKLEY        CLEAR     80  68  66 NE5       30.20R
BLUEFIELD      CLEAR     77  66  68 CALM      30.22S
LOGAN CO APT*    N/A     82  72  69 CALM      30.13S
$$

VAZ002-007-008-TNZ017-027-036-066-071-270100
...SOUTHWEST VIRGINIA/EAST TENNESSEE...

CITY           SKY/WX    TMP DP  RH WIND       PRES   REMARKS
WISE*          CLEAR     79  59  50 N5        30.22S
JONESVILLE*      N/A     82  73  74 CALM      30.13R
ABINGDON*      CLEAR     84  67  57 NE3       30.16S
BRISTOL        PTCLDY    85  69  58 CALM      30.11R
MORRISTOWN*    CLEAR     86  68  54 NE5       30.08R
SEVIERVILLE*   CLEAR     86  70  58 VRB3      30.06R HX  90
KNOXVILLE      MOCLDY    89  66  46 NE8       30.04R HX  91
OAK RIDGE      CLEAR     87  71  58 CALM      30.08R HX  93
CROSSVILLE     CLOUDY    80  72  76 CALM      30.13R
NASHVILLE      CLOUDY    89  73  59 E6        30.04S HX  97
$$

...KEY TO REMARKS...
VSB - VISIBILITY IN MILES
WCI - WIND CHILL INDEX
HX  - HEAT INDEX

$$




USA.gov is the U.S. government's official web portal to all federal, state and local government web resources and services.